Weather in Oktyabrskoye

Russia / Kurgan Oblast     55°00′42″N   67°51′40″E
temp.,
°C
wind,
m/s
gust,
m/s
humid.,
%
clouds,
%
prec.,
mm/h
press.,
hPa
HPBL,
m
17 may, mon
mon1723:00+22nw223499 0.0 101712
02:00+20w4839100 0.0 1017111
05:00+18w4114899 0.0 1018163
08:00+25w693774 0.0 1018407
11:00+30wnw69245 0.0 10172294
14:00+32wnw7102038 0.0 10164067
17:00+31wnw792058 0.0 10153502
20:00+24nnw814405 0.1 1015499
18 may, tue
tue1823:00+22wsw47425 0.1 101493
02:00+18w345767 0.1 101454
05:00+18w356182 0.1 101381
08:00+22wnw5849100 0.0 1013506
11:00+24wnw5746100 0.0 10131014
14:00+27wnw6937100 0.0 10112399
17:00+19n9126556 0.3 1012570
20:00+18nne36645 0.1 1013222
19 may, wed
wed1923:00+15nne7118131 0.3 1015618
02:00+12nne7117823 0.0 1017769
05:00+12nne71179100 0.0 1019817
08:00+13nne810550 0.0 10201008
11:00+17ne79375 0.0 10211611
14:00+19nne67325 0.0 10211913
17:00+19nne67325 0.0 10211887
20:00+15ne35445 0.0 102283
20 may, thu
thu2023:00+12nne345111 0.0 102349
02:00+11ne3458100 0.0 102463
05:00+9ne226472 0.0 102530
08:00+15ene114563 0.0 1025467
11:00+19nw233592 0.0 10251360
14:00+22wnw3431100 0.0 10231830
17:00+23wnw45295 0.0 10221978
20:00+19wsw33435 0.0 102233
21 may, fri
fri2123:00+16w34525 0.0 102249
02:00+14w47565 0.0 1021109
05:00+14w48600 0.0 1022131
08:00+20w58420 0.0 1022417
11:00+25w56290 0.0 10211533
14:00+28wnw56240 0.0 10192396
17:00+28wnw56240 0.0 10192457
20:00+23wnw33410 0.0 101929